Smartwings, Finnair, easyJet, Emirates. Nejlepší aerolinky za rok 2022 na Letišti Václava Havla Praha

27.01.23 Letiště Praha již podruhé po vzoru dalších mezinárodních letišť ocenilo nejlepší aerolinky za uplynulý rok. Titul nejvíce rozvíjející se dopravce získala tuzemská aerolinka Smartwings. Nejefektivnějším dopravcem s ohledem na provoz je dopravce Finnair. Ke dvěma kategoriím přibyl ještě titul Environmentálně nejzodpovědnější dopravce, který získala aerolinka easyJet. Ocenění získala také aerolinka Emirates za nejlepší využití marketingové podpory ve spolupráci s Letištěm Praha. Celý článek

Zájem o Tunisko roste, Čedok začne se Smartwings létat z Prahy na Djerbu

03.01.23 Dlouhé a široké pláže s jemným pískem, přibližně 320 slunečných dní v roce, tyrkysové Středozemní moře a krátká doba letu lákají stále více Čechů na dovolenou do Tuniska. Během nadcházející sezóny proto Čedok rozšíří svou nabídku letních destinací a přidává nově zájezdy na Djerbu. Celý článek

Zprávy

aktualizováno

01.02.23 Celý článek

Všechny zprávy    

Všechny články

Kurzy

Kalendář akcí

ICAO English Exam / Zkouška - každý pátek v měsíci
03.02.23 Online Worldwide Campus or Flying Academy Beranových 130 Praha
ICAO English Exam / Zkouška - každý pátek v měsíci
10.02.23 Online Worldwide Campus or Flying Academy Beranových 130 Praha
Austro Control Exam PPL / ATPL
14.02.23 Flying Academy Beranových 130 Praha
Austro Control Exam PPL / ATPL
15.02.23 Flying Academy Beranových 130 Praha
Austro Control Exam PPL / ATPL
16.02.23 Flying Academy Beranových 130 Praha

Všechny akce

Zeptejte se odborníka

Zkušený personál jedné z největších leteckých škol Flying Academy je připraven Vám pomoci s jakýmikoli otázkami týkajícími se letectví.

Zeptejte se

Newsletter

Přihlaste se k odběru novinek.

Aktuální počasí

LKKB
LKKB 011500Z 25015KT 9999 SCT035 BKN050 06/M01 Q1013 NOSIG

LKKV
LKKV 011500Z 25008KT 200V290 9999 -RASN BKN014 OVC022 02/M01 Q1013

LKMT
LKMT 011500Z 22015KT 9999 SCT022 04/01 Q1011 NOSIG

LKPR
LKPR 011500Z 26019G29KT 9999 FEW032 04/M01 Q1012 NOSIG

LKTB
LKTB 011500Z 29015KT 9999 FEW031 06/00 Q1013 NOSIG

Briefing

Kurzy měn

AUD AUD 15.31 Kč
EUR EUR 23.92 Kč
GBP GBP 27.30 Kč
HUF HUF 6.04 Kč
CHF CHF 24.01 Kč
USD USD 22.10 Kč